Wind_Speed
7 8 8 7 6 5 5 5 6 7 8 9 9 8 8 8 9 10 11 11 11 11 10 10 10 10 10 8 5 4 4 5 5 6 6 7 6 6 5 5 5 5 5
5 5 6 5 4 3 3 4 4 5 5 5 5 5 5 6 7 7 8 8 8 8 8 8 7 8 8 8 7 5 3 2 3 4 4 5 5 5 4 4 3 3 4
3 3 4 3 2 1 2 3 4 5 5 5 5 5 5 5 6 6 6 7 6 6 5 5 5 5 5 6 6 6 5 2 1 1 2 3 3 3 3 3 3 4 4
1 1 2 1 1 2 3 4 5 6 6 6 6 6 6 6 6 7 7 8 8 7 7 5 4 4 4 4 4 5 5 5 3 1 1 1 2 2 3 3 4 4 5
3 3 3 3 3 4 5 6 6 6 6 6 7 6 6 6 6 7 8 9 10 10 10 9 8 7 6 5 4 4 4 4 3 2 2 4 4 4 4 5 5 5 6
3 4 4 5 5 6 6 7 7 7 7 7 7 7 6 6 7 8 10 11 12 12 12 11 11 10 9 8 8 7 6 4 3 3 2 4 5 7 7 7 7 7 7
3 3 4 4 5 5 6 6 7 7 7 7 7 7 7 8 9 10 11 12 13 13 13 13 12 12 11 11 10 10 9 8 7 5 4 5 6 8 9 10 11 10 9
3 4 4 5 5 5 5 6 6 7 7 7 8 9 9 10 11 12 13 14 14 14 14 14 14 13 13 13 12 12 12 11 10 10 8 7 8 8 9 11 13 13 12
5 6 7 8 8 8 8 8 8 8 8 9 10 11 12 13 14 15 16 16 16 15 15 15 16 16 16 15 15 15 14 14 14 13 12 11 11 10 10 10 12 12 13
9 10 12 13 13 13 13 13 12 12 12 13 13 14 16 17 17 18 19 19 19 19 19 19 19 19 19 19 18 18 17 16 16 16 15 15 14 13 12 11 11 12 13
14 16 17 18 19 20 20 20 19 19 19 19 20 20 20 21 21 22 22 23 23 23 23 23 23 22 23 23 22 22 21 20 20 19 18 17 17 16 15 14 13 12 13
20 21 22 23 23 24 25 25 25 25 25 26 26 25 25 25 25 25 26 27 27 28 28 28 28 27 27 27 27 26 25 25 24 23 21 20 19 19 18 17 16 15 14
25 26 26 26 26 27 28 28 29 29 29 29 30 30 30 30 30 30 31 31 32 33 33 34 33 32 32 31 31 31 31 30 28 27 25 23 21 21 20 20 19 18 17
29 29 29 30 30 30 30 31 32 33 33 33 34 34 35 34 34 34 34 35 36 37 38 38 38 37 36 35 35 35 35 35 33 31 30 27 25 24 22 22 22 22 21
33 33 33 33 33 33 33 32 32 32 33 34 35 36 36 37 37 37 37 37 38 39 40 40 41 40 39 38 38 37 37 36 37 36 34 32 29 27 26 25 25 25 25
36 37 37 36 34 33 32 31 30 30 31 32 33 34 34 35 35 35 35 35 36 36 37 38 39 40 40 39 37 36 36 37 37 37 36 35 34 33 31 29 28 28 27
38 38 37 35 33 32 31 30 30 30 29 30 31 31 31 31 31 31 32 33 34 36 36 37 37 38 38 39 38 37 36 36 36 36 37 36 35 33 33 32 32 31 30
39 38 37 35 34 33 32 31 31 30 30 30 30 30 29 29 29 30 31 32 34 36 37 38 38 38 38 38 38 38 38 37 36 36 36 35 35 35 35 35 35 34 33
38 37 36 35 35 34 32 30 29 29 29 29 28 28 27 27 28 28 30 31 33 35 37 38 38 39 39 39 39 39 38 39 37 37 37 36 36 35 35 35 36 36 36
37 36 37 36 35 34 31 29 27 27 27 26 25 24 23 23 24 25 27 29 32 35 37 38 39 39 39 39 39 38 38 38 37 37 37 37 37 36 35 34 34 35 35
37 38 38 37 36 33 30 28 26 25 23 21 20 19 19 19 19 21 23 26 29 32 35 38 40 40 40 40 40 38 37 36 36 36 37 37 37 36 36 35 35 35 36
38 39 39 38 36 32 29 27 25 22 19 17 16 16 16 17 18 19 21 24 26 29 32 35 38 40 41 41 41 40 38 37 36 35 36 37 37 37 37 36 36 35 36
40 40 39 38 35 31 28 26 23 19 17 16 16 17 17 18 19 19 21 23 25 27 29 32 35 37 39 41 42 41 40 37 36 35 35 36 36 36 36 36 35 35 36
39 38 37 35 33 31 28 25 23 21 20 19 20 21 21 22 22 22 23 24 26 27 29 30 31 34 36 39 40 41 40 39 38 36 36 35 36 37 37 36 35 35 35
36 35 36 36 34 32 29 27 25 24 24 24 25 25 26 26 25 25 25 25 26 27 28 29 30 31 33 35 37 39 40 39 38 37 36 36 36 37 37 37 36 36 35
35 36 36 35 34 33 31 30 29 28 29 29 29 29 28 28 27 26 25 26 27 28 29 29 29 29 30 32 34 36 37 38 38 37 36 36 37 36 37 36 35 35 35
Wind_Direction
111 100 96 96 94 85 64 47 44 51 60 67 71 72 67 60 58 61 64 68 70 71 70 68 65 63 61 61 63 72 76 72 69 72 77 82 89 96 105 106 102 99 103
125 112 103 101 100 85 49 26 19 22 32 44 52 54 51 47 46 49 54 58 61 64 65 66 65 62 59 58 56 58 64 68 67 70 76 80 84 93 107 129 140 135 132
142 123 107 103 100 53 353 344 344 345 349 355 2 9 16 21 25 28 30 32 33 35 39 46 50 52 53 52 50 48 47 41 21 46 84 93 96 101 113 140 171 186 182
50 76 80 74 358 314 311 313 318 324 327 332 338 344 349 356 3 8 8 6 3 1 357 356 358 6 12 22 30 34 35 35 20 316 264 216 171 155 157 164 178 193 199
357 4 2 341 319 311 307 306 307 312 316 323 330 334 335 339 347 352 353 353 351 346 343 338 333 328 327 329 335 346 360 12 16 353 283 254 233 216 203 197 193 192 197
350 358 352 337 322 313 308 305 304 307 312 319 324 326 325 327 334 338 341 342 343 340 337 334 329 323 317 311 308 307 307 311 323 327 301 267 250 237 226 216 210 203 197
341 352 346 338 328 316 310 306 302 304 308 313 317 318 317 318 322 327 331 332 334 335 333 331 327 321 316 310 304 298 293 288 285 285 282 271 260 250 240 230 224 216 208
338 336 324 318 314 309 305 302 299 298 299 303 306 308 308 309 313 315 318 321 325 327 327 326 324 318 312 307 302 296 290 285 279 274 269 265 261 258 253 247 238 225 216
338 329 320 313 308 303 298 294 291 288 288 290 293 296 298 300 303 306 308 311 313 315 316 316 316 315 311 304 299 293 287 282 278 274 269 263 259 259 260 258 255 239 227
321 317 312 307 303 299 294 291 288 286 285 285 287 289 291 293 295 296 298 299 301 302 303 303 304 305 304 302 298 294 287 280 275 273 270 265 260 258 258 260 260 248 238
308 308 306 303 299 296 293 290 288 286 285 284 285 285 285 286 286 286 288 289 290 291 291 291 291 293 293 293 293 291 287 282 277 274 270 266 262 259 257 257 258 253 247
303 303 303 301 299 296 293 290 287 284 283 283 283 282 281 280 279 279 280 281 281 282 282 282 282 282 283 284 285 284 283 282 279 276 272 267 263 261 259 256 255 254 252
302 302 302 301 299 296 293 290 287 284 282 281 280 280 279 278 277 276 276 276 276 276 277 277 277 277 277 278 278 278 279 278 277 275 271 266 262 259 258 256 254 252 253
302 303 303 302 300 298 294 291 288 284 282 280 279 278 278 278 277 276 276 276 276 276 275 275 274 275 275 275 274 274 276 275 274 274 270 265 261 258 255 255 254 252 252
302 302 302 301 301 299 297 293 289 285 283 281 279 278 278 278 278 279 278 277 277 276 275 274 273 272 273 273 273 272 273 274 273 274 271 267 263 259 256 254 254 253 253
298 299 299 300 301 301 298 295 291 288 285 283 281 281 280 280 280 280 281 281 281 280 280 278 277 273 273 273 273 273 272 271 273 273 271 267 265 262 257 254 253 253 253
294 296 297 298 299 299 297 294 291 288 286 284 283 283 283 283 283 284 284 284 283 284 283 282 281 278 275 273 273 273 272 271 271 271 270 268 267 263 260 256 253 252 252
291 293 294 295 297 297 296 293 290 287 285 284 284 285 285 286 287 288 288 286 285 284 283 281 281 279 277 276 274 274 272 272 273 271 270 271 269 266 263 260 256 253 252
288 290 292 294 296 296 294 291 288 286 284 284 285 285 288 289 291 292 292 290 288 286 285 283 281 279 277 275 273 272 272 271 271 270 269 268 267 267 266 263 261 257 251
285 288 290 293 295 295 293 290 288 286 283 283 283 285 288 291 293 295 296 294 291 288 285 282 280 278 277 276 273 272 270 270 270 269 268 267 265 265 264 263 261 258 254
284 287 290 291 294 294 291 290 290 286 282 281 280 284 288 292 296 299 301 299 295 291 286 282 278 276 275 274 273 272 270 269 269 268 267 265 264 263 262 261 259 257 255
282 285 287 290 292 291 290 291 289 286 283 282 284 287 291 296 301 305 308 308 305 299 293 286 280 276 273 272 271 271 270 269 268 266 265 264 264 262 261 260 259 259 258
281 284 287 290 291 291 291 291 289 287 284 285 287 288 292 298 302 307 311 313 314 310 304 296 287 279 274 271 269 268 268 268 267 265 264 264 264 263 262 260 259 259 259
278 280 282 286 289 289 290 290 288 286 282 281 283 284 288 292 297 302 307 312 315 315 311 304 296 287 278 272 269 268 267 266 265 265 264 263 264 264 263 261 261 259 259
274 277 281 285 286 288 288 287 285 281 279 279 279 280 284 287 292 297 301 307 313 316 316 312 306 296 286 277 271 268 266 265 265 263 263 262 262 263 263 263 262 259 259
271 276 280 284 286 287 287 285 282 279 276 276 277 278 280 284 288 294 300 304 310 314 317 315 311 304 294 284 276 271 267 265 263 262 261 261 262 262 263 264 263 260 259
Height
5928 5928 5927 5928 5928 5927 5927 5926 5924 5923 5921 5920 5918 5918 5917 5916 5915 5914 5913 5912 5911 5910 5908 5907 5906 5904 5903 5901 5900 5899 5898 5898 5897 5896 5895 5894 5894 5893 5893 5893 5893 5893 5893
5929 5928 5928 5928 5928 5928 5927 5926 5925 5923 5922 5920 5919 5918 5917 5916 5915 5914 5913 5912 5911 5910 5909 5908 5907 5905 5904 5903 5901 5900 5899 5898 5898 5897 5896 5895 5894 5894 5893 5894 5894 5894 5894
5929 5929 5928 5929 5929 5928 5927 5926 5925 5924 5922 5921 5919 5918 5917 5916 5915 5915 5914 5913 5912 5911 5910 5909 5908 5906 5905 5904 5902 5901 5900 5899 5898 5897 5896 5895 5894 5894 5894 5894 5894 5894 5894
5930 5929 5929 5929 5929 5928 5927 5926 5925 5924 5922 5921 5919 5918 5917 5916 5916 5915 5914 5914 5913 5911 5910 5909 5908 5907 5905 5904 5903 5902 5901 5900 5898 5897 5896 5895 5895 5894 5894 5894 5894 5894 5894
5930 5929 5929 5929 5929 5928 5927 5926 5924 5923 5922 5920 5919 5918 5917 5916 5916 5915 5914 5913 5913 5911 5910 5909 5908 5906 5905 5904 5903 5902 5901 5900 5899 5898 5897 5896 5895 5894 5894 5894 5894 5893 5893
5929 5929 5928 5928 5928 5927 5926 5925 5924 5923 5921 5920 5919 5918 5917 5916 5915 5914 5913 5912 5912 5911 5909 5908 5907 5906 5904 5903 5902 5901 5900 5899 5898 5898 5897 5896 5895 5894 5894 5894 5894 5893 5893
5928 5927 5927 5927 5926 5926 5925 5924 5923 5922 5920 5919 5918 5917 5916 5915 5914 5913 5912 5911 5910 5909 5908 5907 5905 5904 5903 5902 5901 5900 5899 5898 5897 5897 5896 5895 5894 5894 5893 5893 5893 5892 5892
5926 5925 5925 5925 5924 5924 5923 5922 5921 5920 5919 5918 5917 5915 5914 5914 5913 5911 5910 5909 5908 5907 5906 5905 5904 5902 5901 5900 5899 5898 5897 5896 5896 5895 5894 5894 5893 5892 5892 5891 5891 5890 5890
5925 5924 5924 5923 5923 5922 5921 5920 5919 5918 5917 5915 5914 5913 5912 5911 5910 5909 5908 5907 5906 5905 5904 5903 5902 5901 5899 5898 5897 5896 5895 5894 5893 5893 5892 5892 5891 5891 5890 5890 5889 5889 5889
5924 5923 5922 5922 5921 5920 5919 5918 5917 5916 5914 5913 5912 5910 5909 5908 5907 5906 5905 5903 5902 5902 5901 5900 5899 5898 5897 5896 5895 5894 5893 5892 5891 5890 5889 5889 5889 5889 5888 5888 5887 5887 5887
5921 5921 5920 5919 5918 5917 5916 5915 5914 5912 5911 5910 5908 5907 5905 5904 5903 5901 5900 5899 5898 5897 5896 5896 5895 5894 5893 5892 5891 5890 5889 5889 5888 5887 5886 5886 5886 5886 5886 5885 5885 5885 5884
5918 5918 5916 5915 5914 5913 5912 5910 5909 5908 5906 5905 5903 5902 5900 5899 5898 5896 5896 5895 5893 5892 5891 5890 5889 5888 5888 5887 5886 5885 5884 5884 5884 5883 5883 5883 5882 5882 5882 5882 5882 5882 5882
5915 5914 5912 5911 5910 5908 5907 5905 5904 5902 5900 5899 5897 5896 5894 5893 5892 5891 5890 5889 5887 5886 5885 5884 5883 5882 5882 5881 5880 5879 5878 5878 5878 5878 5878 5878 5878 5878 5878 5878 5878 5879 5879
5910 5909 5908 5906 5904 5903 5901 5899 5897 5895 5894 5892 5890 5889 5887 5886 5885 5884 5883 5882 5881 5880 5878 5877 5876 5875 5875 5874 5873 5873 5872 5872 5871 5871 5872 5872 5872 5873 5874 5874 5874 5875 5875
5905 5903 5902 5900 5898 5896 5894 5892 5890 5888 5886 5884 5883 5881 5880 5879 5877 5877 5876 5875 5873 5872 5870 5869 5868 5867 5867 5866 5866 5865 5865 5864 5864 5864 5865 5865 5866 5867 5868 5869 5869 5870 5870
5899 5898 5896 5894 5892 5889 5887 5885 5882 5880 5878 5876 5875 5873 5872 5871 5869 5868 5868 5866 5865 5863 5862 5861 5860 5858 5858 5858 5858 5857 5857 5856 5856 5856 5856 5857 5858 5859 5860 5862 5863 5864 5865
5893 5891 5889 5887 5885 5883 5880 5878 5876 5874 5871 5869 5867 5866 5864 5863 5862 5861 5860 5859 5857 5855 5854 5853 5851 5850 5849 5849 5849 5848 5848 5848 5848 5848 5848 5849 5850 5851 5852 5854 5856 5857 5858
5887 5885 5883 5881 5879 5876 5874 5872 5869 5867 5864 5862 5860 5859 5858 5856 5855 5853 5852 5851 5849 5847 5846 5845 5844 5842 5841 5841 5840 5840 5840 5840 5840 5840 5840 5841 5841 5842 5844 5845 5847 5849 5851
5881 5879 5877 5874 5872 5870 5867 5865 5862 5860 5858 5856 5854 5852 5851 5850 5848 5847 5845 5843 5841 5839 5837 5836 5834 5833 5832 5831 5831 5831 5831 5831 5831 5832 5832 5833 5833 5834 5835 5836 5838 5839 5842
5875 5872 5870 5868 5865 5863 5860 5858 5856 5854 5852 5850 5848 5846 5845 5844 5842 5840 5838 5836 5833 5830 5828 5826 5825 5823 5822 5822 5821 5821 5822 5822 5822 5823 5824 5824 5825 5826 5827 5827 5829 5830 5832
5868 5865 5863 5860 5858 5856 5853 5851 5849 5847 5845 5844 5842 5841 5839 5838 5836 5834 5831 5829 5826 5823 5820 5817 5815 5814 5813 5812 5811 5812 5812 5813 5813 5814 5814 5815 5816 5817 5818 5819 5820 5821 5823
5860 5858 5855 5853 5851 5848 5846 5845 5842 5840 5839 5837 5836 5835 5833 5832 5830 5828 5825 5822 5818 5815 5812 5808 5806 5805 5804 5803 5802 5802 5803 5804 5804 5805 5805 5806 5807 5808 5809 5810 5811 5813 5814
5852 5849 5847 5846 5844 5841 5839 5837 5836 5834 5833 5831 5830 5829 5827 5826 5824 5821 5818 5815 5811 5807 5804 5800 5797 5795 5794 5793 5792 5792 5793 5795 5795 5796 5797 5798 5798 5799 5800 5801 5803 5804 5805
5843 5841 5839 5838 5836 5834 5832 5830 5829 5828 5826 5825 5824 5822 5821 5819 5817 5814 5811 5808 5804 5800 5796 5792 5788 5785 5783 5783 5782 5782 5783 5785 5786 5787 5788 5789 5790 5790 5791 5792 5794 5795 5796
5835 5833 5831 5830 5828 5827 5825 5823 5822 5821 5820 5819 5818 5816 5814 5812 5810 5807 5804 5800 5797 5793 5788 5784 5780 5777 5774 5772 5772 5772 5773 5775 5776 5778 5779 5780 5781 5781 5782 5783 5784 5786 5787
5826 5825 5823 5822 5820 5819 5817 5816 5815 5813 5812 5811 5810 5809 5807 5805 5802 5799 5796 5793 5789 5785 5781 5777 5772 5769 5765 5763 5762 5762 5763 5765 5766 5768 5770 5771 5771 5773 5773 5774 5775 5776 5778